TimeCDT,TemperatureF,Dew PointF,Humidity,Sea Level PressureIn,VisibilityMPH,Wind Direction,Wind SpeedMPH,Gust SpeedMPH,PrecipitationIn,Events,Conditions,WindDirDegrees,DateUTC
12:53 AM,27.0,25.0,92,30.26,10.0,NW,3.5,-,N/A,,Clear,310,2011-10-27 05:53:00
1:53 AM,25.0,21.9,88,30.24,10.0,WNW,3.5,-,N/A,,Clear,300,2011-10-27 06:53:00
2:53 AM,23.0,21.0,92,30.24,10.0,NW,3.5,-,N/A,,Clear,310,2011-10-27 07:53:00
3:53 AM,21.0,19.9,96,30.23,10.0,NW,3.5,-,N/A,,Clear,320,2011-10-27 08:53:00
4:53 AM,21.9,19.9,92,30.22,10.0,NW,6.9,-,N/A,,Clear,320,2011-10-27 09:53:00
5:53 AM,21.9,19.9,92,30.23,10.0,Calm,Calm,-,N/A,,Clear,0,2011-10-27 10:53:00
6:53 AM,21.0,19.0,92,30.22,10.0,WSW,4.6,-,N/A,,Clear,250,2011-10-27 11:53:00
7:53 AM,21.0,18.0,88,30.23,10.0,West,4.6,-,N/A,,Clear,280,2011-10-27 12:53:00
8:53 AM,26.1,23.0,88,30.23,10.0,West,4.6,-,N/A,,Clear,270,2011-10-27 13:53:00
9:53 AM,30.9,27.0,85,30.25,10.0,West,6.9,-,N/A,,Clear,260,2011-10-27 14:53:00
10:53 AM,36.0,28.9,76,30.24,10.0,West,5.8,-,N/A,,Clear,260,2011-10-27 15:53:00
11:53 AM,42.1,30.9,65,30.22,10.0,West,8.1,-,N/A,,Clear,270,2011-10-27 16:53:00
12:53 PM,48.9,28.0,44,30.20,10.0,WSW,10.4,-,N/A,,Clear,240,2011-10-27 17:53:00
1:53 PM,50.0,25.0,38,30.17,10.0,WSW,11.5,-,N/A,,Clear,250,2011-10-27 18:53:00
2:53 PM,50.0,26.1,39,30.14,10.0,WSW,10.4,-,N/A,,Clear,240,2011-10-27 19:53:00
3:53 PM,50.0,25.0,38,30.13,10.0,West,12.7,-,N/A,,Clear,270,2011-10-27 20:53:00
4:53 PM,48.0,24.1,39,30.12,10.0,West,11.5,-,N/A,,Clear,260,2011-10-27 21:53:00
5:53 PM,46.4,23.0,40,30.07,10.0,WNW,11.5,-,N/A,,Partly Cloudy,290,2011-10-27 22:53:00
6:53 PM,39.9,26.1,58,30.15,10.0,WSW,4.6,-,N/A,,Clear,240,2011-10-27 23:53:00
7:53 PM,36.0,27.0,70,30.18,10.0,WSW,3.5,-,N/A,,Clear,250,2011-10-28 00:53:00
8:53 PM,30.0,25.0,82,30.19,10.0,Calm,Calm,-,N/A,,Clear,0,2011-10-28 01:53:00
9:53 PM,28.0,24.1,85,30.20,10.0,NW,8.1,-,N/A,,Clear,310,2011-10-28 02:53:00
10:53 PM,28.0,25.0,88,30.21,10.0,NW,4.6,-,N/A,,Clear,310,2011-10-28 03:53:00
11:53 PM,27.0,24.1,89,30.20,10.0,WNW,5.8,-,N/A,,Clear,300,2011-10-28 04:53:00